Aérodrome :
LOGIN :

S'inscrire | Disclaimer

   EN    FR    IT 

 










Légende :    VFR   VFR Marginal   IFR   IFR Intensif   IFR Très Intensif
Visi : 
Plafond : 
>= 8 km
>= 3000ft
5 à 8 km
1000 à 3000 ft
1500m à 5 km
500 à 1000 ft
800 à 1500m
200 à 500 ft
< 800m
< 200 ft
Symboles :   Orages  Brouillard  Fortes neiges  Fortes précipitations  Vent > 20 kt
SIGMETs :   Divers  Orages  Givrage  Turbulence  Onde Orograph.  Cendres Volcan.







- Altitude de l'aérodrome : 49 ft
- Code IATA : SEN
- Voir les cartes d'approche


EGMC - Southend

DERNIER METAR :
  • 171820Z 30008KT 270V330 9999 FEW038 02/M03 Q1016

METARs EXPIRÉS :
  • 171750Z 30008KT 9999 FEW038 02/M03 Q1015
  • 171720Z 30007KT 9999 FEW038 03/M03 Q1015
  • 171650Z 30009KT 9999 FEW038 03/M03 Q1015
  • 171620Z 30010KT 9999 FEW038 03/M03 Q1014
  • 171550Z 31010KT 9999 FEW038 04/M03 Q1014

TAF TAF EGMC
Valide du 17 à 18h jusqu'au 18 à 03h UTC


171701Z 1718/1803 31010KT 9999 FEW045
BECMG 1721/1724 VRB03KT 8000
PROB30 1801/1803 4000 BR
Pas de NOTAMs connus pour ce terrain.



MET'MAP, la Météo Aéronautique d'un coup d'oeil ! - Copyright ORBIFLY Décembre 2007 - Disclaimer

ORBIFLY MET'MAP TEAM :

Programmation & Développement : Alexandra Zaïnal
Conception & Développement : Baudouin d'Aumeries
Co-Programmation & Développement : Marc-Olivier Méhu
Soutien technique & logistique : Manuel Goepfert

Contact : metmap@orbifly.com




SOURCES & CREDITS :

   NOAA